Location: Hamilton
(37.7830°S, 175.2830°E)
Time: 19:11:31
(UTC+13:00)

IRAS Rocket - Pass Details

Date: 24 January 2019
Orbit: 847 x 878 km, 100.0° (Epoch: 22 October)

Event Time Altitude Azimuth Distance (km) Brightness Sun altitude
Rises 23:32:37 0° 169° (S) 3,487 8.1 -26.6°
Reaches altitude 10° 23:35:02 10° 171° (S) 2,538 7.3 -26.8°
Maximum altitude 23:40:36 66° 252° (WSW) 948 4.5 -27.4°
Enters shadow 23:41:53 50° 307° (NW) 1,088 4.6 -27.5°
